STARLINK-32030, 61513

Orbit data source: Space-Track

STARLINK-32030, 61513 is a payload satellite owned by SpaceX/Seattle (US) in LEO that was launched on Tue, 15 Oct 2024 UTC via an FALCON 9 launch vehicle from the Air Force Eastern Test Range (AFETR). Payload-class satellites include a variety of spacecraft equipped with specific instruments for various scientific and technological missions. These include communications satellites like Starlink; space stations such as the ISS; scientific satellites like the Hubble; Earth observation satellites from companies like Planet Labs, Umbra, and HawkEye 360; GPS; miniature CubeSats for education and research; and military/defense satellites.

Loading next visibility...
Identifier
61513, 2024-183E
Orbit
LEO
Country
Flag of USUS
Related business
Manufacturer
SpaceX/Seattle
Mission
Operational Commercial Communications
Bus & Motor
STARLINK V2M, Unknown motor
Mass
730 kg wet, ~700 kg dry
Launch date (UTC)
2024-10-15 (1 year ago)
Launch vehicle
FALCON 9
Launch site
Air Force Eastern Test Range (AFETR)
Object type
Payload
Rocket body
Debris
Shape & HBR
Box + 2 Pan, 17.7 m
Radar Cross Section
33.884 m², Large (>1 m²)

Expand to show TLE details & history
Last TLE update: 15 hours ago

TLE from 15 hours ago
0 STARLINK-32030
1 61513U 24183E   25346.84025343 -.00000357  00000-0  65213-7 0  9993
2 61513  53.1595 185.9869 0001592  94.3063 265.8120 15.30194811 66351
Epoch: 2025-12-12T20:09Z
TLE epoch observation values (Epoch: 2025-12-12T20:09:57.896Z)
Latitude
0.00001°
Longitude
161.71957°
Altitude
476.21 km
Speed
7.629 km/s
True Right ascension
12h 23m 56s
True Declination
0° 00' 00"
Sunlit
Object was in daylight at epoch
Visualization orbit readout
Latitude
Unknown
Longitude
Unknown
Altitude
Unknown
Speed
Unknown
Apparent Right ascension
Unknown
Apparent Declination
Unknown
Sunlit
N/A
Visualization observer readout
Local Sidereal Time
09:17:54
Azimuth
Unknown
Elevation
Unknown
Doppler factor
Unknown
Orbital elements
Apogee altitude
476.578 km
Perigee altitude
474.396 km
Semi-major axis
6,853.624 km
Eccentricity
0.00016
Inclination
53.1595°
RAAN
185.9869°
Arg. of periapsis
94.3063°
True anomaly
265.79381°
Mean anomaly
265.812°
Eccentric anomaly
265.8029°
Mean motion
3.82528 °/min
Orbital period
94.11 mins
BSTAR
6.5213e-8
Loading maneuver chart data...
Computing Atmospheric mass density...
Loading historical data...
Loading historical data...
Loading historical data...
Loading historical data...
Loading historical data...
Loading historical data...
Loading historical data...

Documentation

Showing up to 5 results
|